Lid_Strength_Index
1 2 2 2 2 2 2 3 3 3 3 3 3 4 3 3 3 2 3 2 5 7 6 4 4 6 6 7 9 7 8 8 8 11 11 11 12 11 11 10 12 13 15 15 14 15 18 9 8 12 10 8 8 9
1 1 1 2 2 2 2 2 3 3 3 3 3 3 3 3 3 3 4 2 2 6 6 3 3 2 3 3 6 6 8 8 8 9 9 9 11 10 11 15 9 14 11 13 13 14 10 9 9 8 8 9 8 8
1 1 2 1 1 2 2 2 2 2 3 3 3 3 4 3 3 3 3 3 5 7 6 5 4 1 1 1 1 7 6 6 6 4 8 9 11 9 13 12 11 9 7 11 11 11 10 10 9 8 8 9 9 8
1 2 2 1 1 1 1 2 2 2 3 3 3 3 4 4 3 3 3 2 4 6 8 6 1 3 1 1 1 2 3 3 4 5 7 8 10 6 10 9 10 9 8 10 11 10 9 10 10 9 9 9 9 8
2 2 2 2 1 1 1 1 1 2 2 2 2 3 3 4 3 3 1 2 1 5 8 6 3 2 1 2 2 2 3 5 6 7 8 9 6 8 7 8 11 8 11 11 13 11 10 11 10 9 11 11 10 10
2 2 2 2 2 2 1 1 2 2 2 2 2 2 3 3 2 2 6 0 1 1 6 8 3 3 2 2 3 3 3 4 5 7 7 6 5 7 10 11 9 9 9 9 10 9 10 10 10 10 11 12 11 11
1 2 2 2 2 2 1 1 1 2 2 2 2 2 3 2 2 5 5 3 1 1 6 8 7 3 3 3 3 3 3 4 5 7 7 7 6 6 9 11 9 9 9 9 9 9 11 11 12 10 10 10 10 11
1 2 2 2 2 1 1 1 1 1 2 2 2 2 3 3 2 4 2 1 1 4 5 9 8 7 3 6 7 4 6 5 6 7 6 7 6 7 11 9 9 9 9 9 9 9 10 10 11 11 10 10 11 12
1 1 1 1 2 2 1 1 1 1 1 2 2 2 2 4 5 3 0 -0 -0 4 8 8 9 10 3 6 6 6 5 9 5 8 7 7 8 11 9 9 10 10 10 10 9 10 11 12 12 12 12 13 13 13
1 1 1 1 1 1 1 1 1 1 1 2 3 5 8 5 0 0 3 6 7 7 5 8 5 8 5 6 8 8 7 9 11 8 5 9 11 10 10 10 10 10 10 9 10 11 11 12 13 14 14 14 14 15
1 1 1 1 1 2 1 1 0 1 1 3 6 7 2 0 2 5 7 8 7 9 6 6 6 8 4 9 9 7 10 8 12 9 10 10 12 12 10 11 10 11 11 11 11 11 11 12 12 13 14 15 16 16
1 1 1 1 2 1 1 1 0 1 2 3 3 1 2 4 6 9 10 7 8 9 6 7 6 5 5 4 7 8 10 9 13 7 10 12 13 11 11 12 11 12 12 13 13 14 14 14 14 15 15 16 17 17
-0 0 1 1 1 1 1 1 1 0 1 2 3 6 7 7 11 11 13 10 10 7 7 6 8 6 5 5 7 8 11 12 8 12 13 14 12 12 12 12 13 13 13 14 15 15 16 17 17 17 17 17 17 18
-0 -0 1 1 1 1 1 0 1 1 2 6 7 10 10 11 9 9 8 8 6 6 7 6 7 7 6 8 9 11 9 9 13 14 14 13 13 13 13 13 14 16 16 16 16 17 17 18 18 17 17 17 18 18
-1 -0 1 1 1 1 1 1 1 1 4 8 7 11 10 8 7 7 6 7 5 5 6 7 7 6 9 10 9 10 12 13 12 14 13 13 13 13 14 14 15 16 16 16 16 17 17 17 17 18 17 17 17 18
0 1 2 1 1 1 1 1 2 4 5 7 8 9 8 8 8 8 7 8 4 5 5 6 8 10 10 10 11 12 13 14 14 13 13 13 14 14 15 15 15 15 15 15 16 16 16 17 17 17 17 17 18 18
1 3 2 1 1 1 1 3 4 6 7 9 9 8 8 7 8 8 7 7 5 7 10 8 11 11 8 10 11 10 13 13 13 12 12 13 14 15 15 15 15 15 15 15 15 15 16 15 15 15 16 16 16 17
3 1 1 1 2 3 4 4 6 8 11 9 10 9 8 8 8 8 7 6 6 6 6 9 6 10 11 12 11 12 12 12 12 13 13 14 14 14 14 14 14 14 14 14 14 14 14 14 14 14 14 14 15 15
2 1 2 2 3 4 6 7 6 10 9 9 9 8 8 8 8 7 6 6 4 4 6 7 9 10 10 10 12 12 12 12 14 14 14 14 13 14 13 13 13 13 14 13 12 12 12 13 12 12 12 12 13 13
2 2 2 3 2 6 8 8 5 9 11 10 8 9 9 9 9 8 7 6 7 7 9 10 11 11 10 10 9 10 11 11 13 15 15 14 13 13 13 13 12 12 12 12 12 12 11 12 11 11 12 13 12 13
3 3 3 3 5 5 7 8 9 9 10 10 9 9 10 9 9 9 9 7 8 9 11 11 11 10 9 9 9 10 11 11 11 12 13 14 12 12 11 11 11 11 11 11 11 12 12 12 11 11 11 11 11 11
5 4 6 5 6 7 8 6 9 8 9 10 9 9 10 10 10 10 9 10 10 11 10 11 11 11 11 12 11 9 9 9 10 10 11 11 12 12 12 11 11 11 11 11 11 11 11 11 11 11 11 11 11 12
4 5 5 6 8 9 10 6 9 9 12 11 10 11 11 11 10 9 11 10 12 10 10 11 11 10 11 11 11 11 10 10 11 11 11 10 10 10 10 11 10 11 11 11 11 11 12 15 13 11 11 11 11 12
4 7 8 8 9 11 8 9 8 10 10 11 11 13 12 11 11 11 12 11 12 11 12 12 12 12 12 12 12 12 11 10 11 11 10 11 12 12 11 11 11 11 11 11 11 11 11 12 15 12 11 11 11 12
8 11 9 11 8 10 11 11 11 11 12 11 13 13 13 11 13 13 13 13 14 13 13 11 11 12 13 12 11 11 10 11 11 12 11 10 11 12 12 12 12 12 11 11 12 12 12 12 12 12 12 12 12 12
12 12 11 11 11 11 11 13 12 12 12 13 13 12 12 13 14 14 12 12 13 12 12 11 11 12 11 11 12 13 11 10 10 12 12 11 11 11 12 13 13 13 12 11 11 12 12 13 13 13 13 14 17 14
14 14 12 11 10 10 12 11 10 12 13 14 13 14 14 16 15 13 11 11 12 11 10 10 10 10 11 11 11 11 10 10 10 11 11 11 12 11 11 12 13 13 12 12 12 12 12 13 13 13 13 13 13 13
14 13 15 14 13 12 13 13 13 13 13 11 12 15 15 14 14 13 11 10 10 10 10 9 9 9 10 10 11 11 12 13 13 13 13 13 13 13 13 14 14 14 14 14 13 13 13 13 13 13 13 14 13 13
14 13 14 18 15 15 15 15 14 14 14 13 13 14 16 15 14 13 11 10 10 10 11 11 10 10 11 11 11 12 13 13 15 17 17 17 17 16 14 14 15 13 13 15 15 14 14 14 14 14 13 13 13 13
15 13 15 17 17 17 16 16 16 15 14 14 14 16 16 16 15 13 11 11 11 11 10 11 11 12 13 13 14 13 12 12 12 14 15 14 14 14 14 14 14 14 13 13 14 16 17 15 15 15 15 15 14 14
14 13 15 15 17 17 17 16 15 15 14 14 13 14 17 17 15 14 13 11 11 11 12 13 13 12 13 13 14 14 15 13 14 13 13 13 14 14 14 14 13 13 13 14 14 14 15 15 15 14 15 15 15 16
14 15 16 17 18 17 15 15 15 15 15 15 16 16 16 16 18 16 14 13 12 13 13 13 14 14 12 12 12 12 14 14 15 15 15 14 14 14 14 14 14 14 14 14 14 15 16 16 15 15 15 15 15 15
15 14 15 15 17 17 16 16 16 17 15 16 16 15 15 15 19 18 15 14 14 13 13 12 12 13 13 14 14 15 15 15 15 15 15 14 15 15 15 15 15 14 15 15 15 15 16 17 16 16 16 17 17 16